[[{"header":{"parameterUnit":"m.s-1","parameterCategory":2,"la1":30.2991,"la2":30.254,"lo1":-89.0895,"lo2":-89.0444,"dy":0.0017,"dx":0.0017,"nx":28,"ny":28,"refTime":"2023-09-03T21:00:00:Z","depth":"0","parameterNumber":2,"parameterNumberName":"U-component_of_CURRENTS"},"data":[0,0,0,0,0,0,0,0,0,0,0,0,0,0,0,0,0,0,0,0,0,0,0,0,0,0,0,0,0,0,0,0,0,0,0,0,0,0,0,0,0,0,0,0,0,0,0,0,0,0,0,0,0,0,0,0,0,0,-0.1948,-0.1948,0,-0.195,-0.195,-0.1949,-0.1924,-0.1923,-0.1923,-0.1923,-0.1881,-0.188,-0.1879,0,0,0,0,0,0,0,0,0,0,0,0,0,-0.1899,-0.19,-0.1948,-0.1948,-0.1948,-0.195,-0.195,-0.1949,-0.1924,-0.1923,-0.1923,-0.1922,-0.1881,-0.188,-0.1879,0,0,0,0,0,0,0,0,0,0,0,0,0,-0.191,-0.19,-0.1948,-0.1938,-0.1937,-0.195,-0.1949,-0.1949,-0.1924,-0.1923,-0.1923,-0.1922,-0.1881,-0.188,-0.1879,-0.1885,0,0,-0.1876,-0.1875,0,0,0,0,0,0,0,0,-0.1909,-0.1911,-0.1939,-0.1939,-0.1938,-0.1938,-0.1917,-0.1927,-0.1924,-0.1926,-0.1923,-0.1922,-0.1898,-0.1896,-0.1894,-0.1883,-0.1882,-0.1876,-0.1875,-0.1874,-0.1874,0,0,0,0,0,0,0,-0.1908,-0.1911,-0.1946,-0.194,-0.1939,-0.1926,-0.1926,-0.1918,-0.1913,-0.1926,-0.1925,-0.193,-0.1897,-0.1895,-0.1893,-0.1881,-0.1876,-0.1875,-0.1874,-0.1874,-0.1881,-0.1881,0,0,0,0,0,0,-0.1916,-0.191,-0.1946,-0.1946,-0.1925,-0.1927,-0.1928,-0.1937,-0.1914,-0.1911,-0.193,-0.1929,-0.1897,-0.1894,-0.1891,-0.191,-0.1875,-0.1873,-0.1873,-0.188,-0.1881,-0.1882,0,0,0,0,0,0,-0.1915,-0.1919,-0.1946,-0.193,-0.1933,-0.1929,-0.1939,-0.1937,-0.1935,-0.1918,-0.1914,-0.193,-0.1897,-0.1893,-0.189,-0.1907,-0.1873,-0.1872,-0.1879,-0.188,-0.1881,-0.1939,0,0,0,0,0,0,-0.1914,-0.1919,-0.1925,-0.1931,-0.1934,-0.1962,-0.194,-0.1938,-0.1941,-0.1938,-0.1917,-0.1912,-0.1896,-0.1892,-0.1889,-0.1905,-0.1871,-0.1878,-0.1879,-0.1881,-0.1936,-0.1942,-0.1947,0,0,0,0,0,-0.1912,-0.1926,-0.1925,-0.1929,-0.1943,-0.1963,-0.1964,-0.1956,-0.1941,-0.195,-0.1933,-0.1913,-0.19,-0.1892,-0.1889,-0.1905,-0.1877,-0.1879,-0.1881,-0.1934,-0.1941,-0.1947,0,0,0,0,0,0,-0.1905,-0.1925,-0.1924,-0.1942,-0.1956,-0.196,-0.1965,-0.196,-0.1954,-0.1946,-0.1923,-0.1918,-0.1924,-0.1907,-0.1899,-0.1911,-0.1885,-0.1887,-0.1927,-0.1934,-0.1939,-0.1939,-0.187,0,0,0,0,0,-0.1909,-0.1922,-0.1941,-0.1954,-0.1963,-0.1964,-0.1968,-0.1968,-0.1965,-0.1961,-0.1947,-0.1933,-0.193,-0.1925,-0.1918,-0.1924,-0.191,-0.1932,-0.1938,-0.1943,-0.194,-0.194,-0.1945,-0.1888,-0.1888,-0.1888,0,0,-0.1907,-0.1921,-0.1927,-0.1953,-0.1959,-0.1981,-0.1964,-0.1978,-0.1993,-0.1958,-0.1965,-0.1952,-0.1936,-0.1946,-0.1946,-0.1932,-0.1954,-0.1945,-0.1949,-0.1944,-0.1942,-0.1948,-0.1953,-0.1889,-0.1889,-0.1889,0,0,-0.1918,-0.1928,-0.1945,-0.1963,-0.1984,-0.1991,-0.1998,-0.2008,-0.2008,-0.2019,-0.1999,-0.1996,-0.1988,-0.1983,-0.1978,-0.201,-0.1985,-0.2009,-0.2035,-0.2035,-0.204,-0.2044,-0.2043,-0.2046,-0.201,-0.201,-0.201,0,-0.1915,-0.1942,-0.1953,-0.1979,-0.1995,-0.1998,-0.2023,-0.2032,-0.2038,-0.2043,-0.2028,-0.2024,-0.2007,-0.2021,-0.203,-0.2023,-0.2017,-0.2012,-0.2043,-0.2046,-0.2049,-0.2047,-0.205,-0.2013,-0.2013,-0.2013,-0.2012,0,-0.1942,-0.1965,-0.1978,-0.2012,-0.2033,-0.2054,-0.2076,-0.2089,-0.2087,-0.2091,-0.2103,-0.2085,-0.2078,-0.2079,-0.2061,-0.2079,-0.2067,-0.2052,-0.2026,-0.2059,-0.2054,-0.2056,-0.2018,-0.2016,-0.2016,-0.2015,0,0,-0.1922,-0.1984,-0.1986,-0.2012,-0.2051,-0.2071,-0.2104,-0.2133,-0.2151,-0.2153,-0.2172,-0.2164,-0.2147,-0.214,-0.2122,-0.2121,-0.2137,-0.2095,-0.2094,-0.2096,-0.2139,-0.2111,-0.211,-0.2129,-0.2129,-0.213,-0.2131,0,-0.1935,-0.1988,-0.2017,-0.2064,-0.2093,-0.2118,-0.215,-0.2177,-0.2189,-0.2209,-0.2199,-0.2205,-0.2174,-0.2168,-0.2166,-0.2143,-0.2143,-0.2138,-0.2106,-0.2105,-0.2076,-0.2111,-0.2049,-0.2044,-0.2133,-0.2133,-0.2133,0,-0.1943,-0.1982,-0.2029,-0.2096,-0.211,-0.2135,-0.2183,-0.2213,-0.2246,-0.2256,-0.2262,-0.2253,-0.2251,-0.2219,-0.22,-0.2198,-0.217,-0.2153,-0.2153,-0.2104,-0.208,-0.2023,-0.2043,-0.2029,-0.2136,-0.2136,-0.2135,0,-0.1914,-0.1987,-0.2023,-0.2045,-0.212,-0.2139,-0.2171,-0.2214,-0.2241,-0.2275,-0.2292,-0.2294,-0.2287,-0.2264,-0.2219,-0.2211,-0.22,-0.2182,-0.2136,-0.2133,-0.2062,-0.2052,-0.2061,-0.2171,-0.2171,-0.2171,-0.2171,0,-0.191,-0.1939,-0.201,-0.2029,-0.2072,-0.2125,-0.2164,-0.2199,-0.2249,-0.2276,-0.2299,-0.2313,-0.2296,-0.2286,-0.2244,-0.2196,-0.2217,-0.2145,-0.2134,-0.2081,-0.2074,-0.2041,-0.2042,-0.2171,-0.2171,-0.2171,-0.2171,0,-0.1864,-0.1915,-0.1959,-0.2034,-0.2056,-0.2077,-0.215,-0.2177,-0.2234,-0.2269,-0.2279,-0.2324,-0.231,-0.2294,-0.2259,-0.2221,-0.2148,-0.2159,-0.21,-0.2081,-0.2018,-0.2024,-0.1991,-0.1944,-0.2111,-0.2111,-0.211,0,-0.1845,-0.1862,-0.1938,-0.1956,-0.1983,-0.203,-0.206,-0.2143,-0.2173,-0.2263,-0.2271,-0.2297,-0.2297,-0.2262,-0.2202,-0.2147,-0.2117,-0.206,-0.2028,-0.2013,-0.2012,-0.1999,-0.196,-0.1961,-0.1959,-0.1958,-0.1957,0,-0.1794,-0.1815,-0.1843,-0.1886,-0.1917,-0.1966,-0.2014,-0.2046,-0.2139,-0.2183,-0.2235,-0.2253,-0.2244,-0.2176,-0.212,-0.2067,-0.2016,-0.2029,-0.2026,-0.1908,-0.1881,-0.183,-0.1968,-0.1944,-0.1945,-0.1946,-0.1947,-0.1947,-0.1731,-0.1733,-0.1765,-0.1796,-0.1834,-0.187,-0.1868,-0.1943,-0.199,-0.2029,-0.2121,-0.2126,-0.2125,-0.2042,-0.2009,-0.1924,-0.1922,-0.1857,-0.187,-0.1862,-0.1801,-0.1916,-0.1871,-0.1872,-0.1873,-0.1873,-0.1874,0,-0.165,-0.1658,-0.1678,-0.1703,-0.1698,-0.176,-0.1807,-0.1789,-0.1802,-0.1891,-0.192,-0.1956,-0.1907,-0.1914,-0.1861,-0.179,-0.1739,-0.1736,-0.1705,-0.1675,-0.1784,-0.1762,-0.1676,-0.1676,-0.1676,-0.1676,-0.1676,-0.1676,-0.1605,-0.1588,-0.1601,-0.1555,-0.1565,-0.1521,-0.152,-0.1519,-0.1555,-0.1587,-0.1643,-0.1723,-0.1747,-0.1878,-0.1808,-0.1729,-0.1674,-0.1612,-0.162,-0.1709,-0.1721,-0.1733,-0.1712,-0.1617,-0.1617,-0.1459,-0.1458,-0.1457]},{"header":{"parameterUnit":"m.s-1","parameterCategory":2,"la1":30.2991,"la2":30.254,"lo1":-89.0895,"lo2":-89.0444,"dy":0.0017,"dx":0.0017,"nx":28,"ny":28,"refTime":"2023-09-03T21:00:00:Z","depth":"0","parameterNumber":3,"parameterNumberName":"V-component_of_CURRENTS"},"data":[0,0,0,0,0,0,0,0,0,0,0,0,0,0,0,0,0,0,0,0,0,0,0,0,0,0,0,0,0,0,0,0,0,0,0,0,0,0,0,0,0,0,0,0,0,0,0,0,0,0,0,0,0,0,0,0,0,0,-0.0142,-0.0141,0,-0.0072,-0.0071,-0.0071,-0.0027,-0.0027,-0.0027,-0.0027,0.0049,0.0051,0.0053,0,0,0,0,0,0,0,0,0,0,0,0,0,-0.0184,-0.0184,-0.0142,-0.0141,-0.014,-0.0072,-0.0071,-0.007,-0.0027,-0.0027,-0.0027,-0.0027,0.0049,0.0051,0.0053,0,0,0,0,0,0,0,0,0,0,0,0,0,-0.0145,-0.0184,-0.0142,-0.0111,-0.0107,-0.0073,-0.0071,-0.007,-0.0027,-0.0027,-0.0027,-0.0026,0.0048,0.0051,0.0053,0.0064,0,0,0.0062,0.0063,0,0,0,0,0,0,0,0,-0.0147,-0.0143,-0.0116,-0.0113,-0.0109,-0.0058,-0.0058,-0.0025,-0.0027,-0.0057,-0.0027,-0.0026,0.0013,0.0019,0.0032,0.0068,0.0071,0.0062,0.0064,0.0065,0.0066,0,0,0,0,0,0,0,-0.015,-0.0146,-0.0114,-0.0115,-0.0111,-0.0082,-0.0077,-0.0052,-0.0024,-0.0055,-0.0051,-0.0044,0.0016,0.0029,0.0034,0.0072,0.0062,0.0064,0.0066,0.0067,0.0135,0.0135,0,0,0,0,0,0,-0.0163,-0.0149,-0.0116,-0.0112,-0.0128,-0.0082,-0.0076,-0.0075,-0.0024,-0.0017,-0.0045,-0.0043,0.0024,0.0031,0.0037,0.0061,0.0065,0.0068,0.0069,0.0135,0.0135,0.0135,0,0,0,0,0,0,-0.0164,-0.0161,-0.0119,-0.0129,-0.0121,-0.0082,-0.0081,-0.0073,-0.006,-0.0017,-0.0009,-0.0039,0.0025,0.0033,0.0064,0.0064,0.0069,0.0071,0.0135,0.0135,0.0135,0.0105,0,0,0,0,0,0,-0.0166,-0.0162,-0.0165,-0.013,-0.0121,-0.0104,-0.0081,-0.0072,-0.0056,-0.0053,-0.0009,-0.0001,0.0026,0.0059,0.0066,0.0068,0.0073,0.0134,0.0135,0.0135,0.0106,0.0104,0.0103,0,0,0,0,0,-0.0167,-0.0176,-0.0166,-0.0162,-0.0128,-0.0104,-0.0097,-0.0067,-0.0056,-0.0053,-0.0018,-0.0003,0.0066,0.0062,0.007,0.0073,0.0134,0.0135,0.0135,0.0106,0.0104,0.0103,0,0,0,0,0,0,-0.0195,-0.0171,-0.016,-0.016,-0.0136,-0.0097,-0.0092,-0.0071,-0.0041,-0.0039,0.0002,0.0012,0.0038,0.0059,0.0053,0.0093,0.0101,0.0103,0.0077,0.0075,0.0074,0.0062,0.0076,0,0,0,0,0,-0.0204,-0.0205,-0.0174,-0.0175,-0.0165,-0.013,-0.0116,-0.0097,-0.0066,-0.0052,-0.002,0.0014,0.0045,0.0063,0.009,0.0113,0.0138,0.0119,0.0118,0.0116,0.0113,0.0152,0.0154,0.0136,0.0136,0.0136,0,0,-0.0215,-0.0202,-0.0202,-0.0181,-0.016,-0.0151,-0.0121,-0.0106,-0.0094,-0.0049,-0.0025,0.0008,0.0049,0.0076,0.0089,0.0095,0.0135,0.0117,0.0115,0.0112,0.0153,0.0155,0.0156,0.0136,0.0136,0.0136,0,0,-0.0241,-0.0227,-0.0237,-0.022,-0.0195,-0.0171,-0.017,-0.0132,-0.0111,-0.0084,-0.0047,-0.0011,0.003,0.0067,0.0089,0.0095,0.0124,0.01,0.0087,0.0125,0.0127,0.0129,0.0165,0.0171,0.0101,0.0101,0.0101,0,-0.0256,-0.0263,-0.0235,-0.0237,-0.0227,-0.0184,-0.0188,-0.0158,-0.0114,-0.0095,-0.0084,-0.0007,0.0027,0.0071,0.0075,0.0092,0.0116,0.009,0.0123,0.0125,0.0127,0.0165,0.0171,0.01,0.01,0.01,0.01,0,-0.0287,-0.029,-0.0294,-0.0283,-0.0266,-0.0264,-0.0221,-0.02,-0.0171,-0.0136,-0.0089,-0.0034,0.0011,0.003,0.0055,0.0091,0.0103,0.0114,0.0125,0.0127,0.0167,0.0174,0.0098,0.0098,0.0099,0.0099,0,0,-0.0329,-0.0321,-0.032,-0.0327,-0.0293,-0.0286,-0.0261,-0.0225,-0.0209,-0.0156,-0.0126,-0.0062,-0.0028,-0.0001,0.0042,0.008,0.0122,0.01,0.0102,0.0132,0.0206,0.0242,0.0253,0.0137,0.0138,0.0138,0.0227,0,-0.0363,-0.0392,-0.0365,-0.0379,-0.0391,-0.034,-0.032,-0.0278,-0.0233,-0.0192,-0.0118,-0.0078,-0.0039,-0.0018,0.0028,0.0099,0.0138,0.0096,0.0203,0.0206,0.0235,0.0262,0.0301,0.0386,0.0234,0.0236,0.0237,0,-0.0399,-0.0417,-0.0447,-0.0438,-0.0435,-0.0428,-0.0392,-0.0369,-0.029,-0.0252,-0.0188,-0.0129,-0.0053,-0.0029,0.0095,0.0065,0.0128,0.0183,0.0188,0.0236,0.0255,0.036,0.0405,0.0522,0.0248,0.0247,0.0246,0,-0.0457,-0.0467,-0.0498,-0.0496,-0.0479,-0.0472,-0.0455,-0.0391,-0.0372,-0.0291,-0.0263,-0.0161,-0.0107,-0.0015,0.0109,0.0098,0.0244,0.0245,0.0338,0.0341,0.0403,0.041,0.0571,0.0323,0.0323,0.0322,0.0322,0,-0.0505,-0.0526,-0.053,-0.0549,-0.0577,-0.0534,-0.0537,-0.0498,-0.0437,-0.0412,-0.0305,-0.0254,-0.0103,0.0005,0.0104,0.0254,0.0245,0.0344,0.0371,0.0394,0.0399,0.0526,0.0566,0.0326,0.0325,0.0324,0.0324,0,-0.0558,-0.056,-0.0599,-0.0604,-0.0608,-0.0627,-0.0607,-0.0603,-0.0533,-0.0495,-0.0472,-0.0319,-0.0164,-0.0007,0.0162,0.0252,0.0459,0.0434,0.0454,0.0481,0.0664,0.07,0.0861,0.0912,0.0548,0.0549,0.055,0,-0.0588,-0.0617,-0.0656,-0.0688,-0.0693,-0.0713,-0.0723,-0.0665,-0.0647,-0.0532,-0.0513,-0.0348,-0.0212,0.0068,0.0267,0.0468,0.0539,0.0598,0.0585,0.0694,0.0753,0.0763,0.0793,0.0658,0.066,0.0662,0.0663,0,-0.0646,-0.0658,-0.0694,-0.0774,-0.0803,-0.0828,-0.0828,-0.0826,-0.0743,-0.0682,-0.056,-0.044,-0.0135,0.0148,0.0419,0.0526,0.0685,0.0637,0.0755,0.0861,0.0879,0.0934,0.0575,0.0678,0.0677,0.0676,0.0675,0.0674,-0.0681,-0.0728,-0.0785,-0.0855,-0.0896,-0.0927,-0.0942,-0.091,-0.0869,-0.0743,-0.0609,-0.0387,0.0042,0.0452,0.0582,0.0876,0.0818,0.0949,0.0986,0.0987,0.1035,0.0706,0.0832,0.0832,0.0831,0.0831,0.083,0,-0.0727,-0.0786,-0.0863,-0.0938,-0.0998,-0.0996,-0.1001,-0.0983,-0.093,-0.0752,-0.0598,-0.0102,0.0297,0.066,0.1095,0.123,0.1232,0.1285,0.132,0.1334,0.1063,0.1068,0.1246,0.1246,0.1246,0.1246,0.1245,0.1245,-0.0753,-0.0843,-0.0893,-0.1013,-0.106,-0.1109,-0.1108,-0.105,-0.0924,-0.0622,-0.0321,-0.0056,0.0484,0.1189,0.1554,0.1562,0.166,0.1644,0.1684,0.1516,0.1487,0.146,0.1476,0.1737,0.1737,0.1941,0.1944,0.1945]}],[{"header":{"parameterUnit":"m.s-1","parameterCategory":2,"la1":30.2991,"la2":30.254,"lo1":-89.0895,"lo2":-89.0444,"dy":0.0017,"dx":0.0017,"nx":28,"ny":28,"refTime":"2023-09-03T21:00:00:Z","depth":"2","parameterNumber":2,"parameterNumberName":"U-component_of_CURRENTS"},"data":[0,0,0,0,0,0,0,0,0,0,0,0,0,0,0,0,0,0,0,0,0,0,0,0,0,0,0,0,0,0,0,0,0,0,0,0,0,0,0,0,0,0,0,0,0,0,0,0,0,0,0,0,0,0,0,0,0,0,-0.1781,-0.1782,0,-0.1783,-0.1782,-0.1782,-0.1761,-0.1761,-0.1761,-0.1761,-0.1724,-0.1724,-0.1723,0,0,0,0,0,0,0,0,0,0,0,0,0,-0.1738,-0.1739,-0.1781,-0.1782,-0.1782,-0.1783,-0.1782,-0.1782,-0.1761,-0.1761,-0.1761,-0.176,-0.1725,-0.1724,-0.1723,0,0,0,0,0,0,0,0,0,0,0,0,0,-0.1747,-0.1739,-0.1781,-0.1774,-0.1773,-0.1783,-0.1782,-0.1782,-0.1762,-0.1761,-0.1761,-0.176,-0.1725,-0.1724,-0.1723,-0.1726,0,0,-0.172,-0.1719,0,0,0,0,0,0,0,0,-0.1747,-0.1749,-0.1775,-0.1774,-0.1774,-0.1774,-0.1754,-0.1762,-0.1762,-0.1763,-0.1761,-0.176,-0.174,-0.1737,-0.1735,-0.1724,-0.1722,-0.172,-0.1719,-0.1719,-0.1718,0,0,0,0,0,0,0,-0.1746,-0.1748,-0.1779,-0.1775,-0.1775,-0.1763,-0.1763,-0.1755,-0.1751,-0.1763,-0.1762,-0.1767,-0.1739,-0.1736,-0.1734,-0.1722,-0.172,-0.1719,-0.1718,-0.1718,-0.1726,-0.1727,0,0,0,0,0,0,-0.1754,-0.1748,-0.1779,-0.1779,-0.1762,-0.1764,-0.1765,-0.1772,-0.1752,-0.175,-0.1767,-0.1766,-0.1738,-0.1735,-0.1733,-0.1754,-0.1719,-0.1718,-0.1717,-0.1725,-0.1726,-0.1727,0,0,0,0,0,0,-0.1753,-0.1757,-0.1779,-0.1766,-0.1768,-0.1766,-0.1774,-0.1772,-0.1773,-0.1756,-0.1752,-0.177,-0.1738,-0.1734,-0.1734,-0.1752,-0.1717,-0.1716,-0.1724,-0.1726,-0.1727,-0.1785,0,0,0,0,0,0,-0.1752,-0.1756,-0.1762,-0.1766,-0.1769,-0.1795,-0.1775,-0.1773,-0.1778,-0.1776,-0.1757,-0.1753,-0.1737,-0.1736,-0.1733,-0.175,-0.1715,-0.1723,-0.1725,-0.1727,-0.1782,-0.1788,-0.1793,0,0,0,0,0,-0.175,-0.1762,-0.1763,-0.1766,-0.1778,-0.1796,-0.1796,-0.1791,-0.1778,-0.1787,-0.1772,-0.1754,-0.1744,-0.1736,-0.1732,-0.1749,-0.1723,-0.1725,-0.1726,-0.1779,-0.1787,-0.1793,0,0,0,0,0,0,-0.1745,-0.1762,-0.1762,-0.1778,-0.1791,-0.1794,-0.1799,-0.1796,-0.1791,-0.1786,-0.1764,-0.1759,-0.1767,-0.175,-0.1742,-0.1756,-0.173,-0.1732,-0.1772,-0.1778,-0.1784,-0.1784,-0.1715,0,0,0,0,0,-0.1749,-0.1761,-0.1777,-0.1789,-0.1798,-0.1799,-0.1804,-0.1804,-0.1802,-0.1799,-0.1787,-0.1775,-0.1772,-0.1769,-0.1762,-0.1769,-0.1755,-0.1778,-0.1784,-0.1788,-0.1786,-0.1787,-0.1792,-0.1734,-0.1734,-0.1733,0,0,-0.1749,-0.1761,-0.1766,-0.1789,-0.1795,-0.1815,-0.18,-0.1814,-0.1829,-0.1796,-0.1805,-0.1794,-0.1779,-0.1789,-0.1791,-0.1777,-0.18,-0.1791,-0.1795,-0.179,-0.1789,-0.1795,-0.18,-0.1735,-0.1735,-0.1734,0,0,-0.1759,-0.1768,-0.1784,-0.1801,-0.182,-0.1826,-0.1834,-0.1844,-0.1846,-0.1858,-0.1839,-0.1839,-0.1832,-0.1827,-0.1823,-0.1854,-0.1831,-0.1854,-0.1881,-0.1882,-0.1887,-0.1891,-0.1891,-0.1895,-0.1856,-0.1856,-0.1856,0,-0.1758,-0.1781,-0.1791,-0.1816,-0.183,-0.1835,-0.1858,-0.1867,-0.1875,-0.188,-0.1868,-0.1866,-0.1851,-0.1865,-0.1874,-0.1867,-0.1862,-0.1858,-0.189,-0.1893,-0.1896,-0.1895,-0.1898,-0.1859,-0.1859,-0.1859,-0.1858,0,-0.1782,-0.1804,-0.1816,-0.1848,-0.1867,-0.1887,-0.1908,-0.1923,-0.1923,-0.1928,-0.1943,-0.1926,-0.1921,-0.1924,-0.1906,-0.1925,-0.1914,-0.1899,-0.1873,-0.1906,-0.1903,-0.1905,-0.1863,-0.1862,-0.1862,-0.1861,0,0,-0.1766,-0.1822,-0.1824,-0.1848,-0.1885,-0.1904,-0.1936,-0.1965,-0.1984,-0.1989,-0.2009,-0.2004,-0.1989,-0.1983,-0.1967,-0.1967,-0.1985,-0.1943,-0.1942,-0.1944,-0.1989,-0.1959,-0.1958,-0.1977,-0.1978,-0.1978,-0.1982,0,-0.1778,-0.1827,-0.1853,-0.1898,-0.1924,-0.1949,-0.198,-0.2007,-0.2021,-0.2043,-0.2036,-0.2044,-0.2015,-0.2013,-0.2011,-0.199,-0.1991,-0.1985,-0.1956,-0.1955,-0.1925,-0.196,-0.1801,-0.1789,-0.1984,-0.1984,-0.1984,0,-0.1786,-0.1821,-0.1866,-0.1927,-0.1941,-0.1966,-0.2013,-0.2043,-0.2077,-0.209,-0.2099,-0.2092,-0.2093,-0.2063,-0.2047,-0.2045,-0.202,-0.2004,-0.2003,-0.1954,-0.1929,-0.1785,-0.1785,-0.1987,-0.1987,-0.1987,-0.1987,0,-0.176,-0.1826,-0.1861,-0.1881,-0.1951,-0.1972,-0.2003,-0.2046,-0.2073,-0.211,-0.2129,-0.2134,-0.213,-0.2109,-0.2068,-0.206,-0.2052,-0.2034,-0.1988,-0.1985,-0.1831,-0.1815,-0.2026,-0.2026,-0.2026,-0.2026,-0.2026,0,-0.1755,-0.1783,-0.185,-0.1868,-0.191,-0.1961,-0.2,-0.2036,-0.2085,-0.2113,-0.2139,-0.2153,-0.214,-0.2131,-0.2093,-0.2047,-0.2068,-0.1998,-0.1986,-0.1849,-0.1834,-0.1986,-0.1982,-0.2026,-0.2026,-0.2026,-0.2026,0,-0.1713,-0.1761,-0.1802,-0.1873,-0.1895,-0.1917,-0.1988,-0.2015,-0.2073,-0.2109,-0.2121,-0.2166,-0.2154,-0.214,-0.2109,-0.2072,-0.2035,-0.2012,-0.1855,-0.1826,-0.1964,-0.1962,-0.1967,-0.1966,-0.1965,-0.1964,-0.1964,0,-0.1696,-0.1712,-0.1783,-0.18,-0.1828,-0.1874,-0.1904,-0.1986,-0.2014,-0.2103,-0.2111,-0.2139,-0.2136,-0.2103,-0.2034,-0.1979,-0.2013,-0.1811,-0.1766,-0.197,-0.1959,-0.1959,-0.1958,-0.1585,-0.1582,-0.1579,-0.1576,0,-0.1647,-0.1668,-0.1694,-0.1736,-0.1767,-0.1812,-0.1859,-0.189,-0.198,-0.2022,-0.2071,-0.2086,-0.2067,-0.1942,-0.1884,-0.1824,-0.181,-0.1751,-0.1994,-0.1636,-0.1614,-0.1602,-0.1613,-0.155,-0.1552,-0.1554,-0.1556,-0.1557,-0.1589,-0.159,-0.162,-0.1651,-0.1688,-0.1721,-0.1718,-0.1784,-0.1826,-0.1846,-0.1941,-0.1899,-0.1883,-0.1711,-0.1634,-0.1562,-0.1676,-0.1584,-0.1592,-0.1602,-0.1568,-0.1547,-0.1464,-0.1466,-0.1468,-0.147,-0.1471,0,-0.1511,-0.1519,-0.1537,-0.1561,-0.1554,-0.1617,-0.1659,-0.1628,-0.1631,-0.1675,-0.1687,-0.1522,-0.1458,-0.1441,-0.1298,-0.1287,-0.1254,-0.1228,-0.1172,-0.1199,-0.1223,-0.1168,-0.0958,-0.0957,-0.0955,-0.0954,0,0,-0.1468,-0.1449,-0.146,-0.1414,-0.1426,-0.1378,-0.1377,-0.1349,-0.1345,-0.1293,-0.1261,-0.1357,-0.1399,-0.117,-0.1124,-0.1019,-0.1094,-0.097,-0.138,-0.1339,-0.1361,-0.1425,-0.1372,0,0,0,0,0]},{"header":{"parameterUnit":"m.s-1","parameterCategory":2,"la1":30.2991,"la2":30.254,"lo1":-89.0895,"lo2":-89.0444,"dy":0.0017,"dx":0.0017,"nx":28,"ny":28,"refTime":"2023-09-03T21:00:00:Z","depth":"2","parameterNumber":3,"parameterNumberName":"V-component_of_CURRENTS"},"data":[0,0,0,0,0,0,0,0,0,0,0,0,0,0,0,0,0,0,0,0,0,0,0,0,0,0,0,0,0,0,0,0,0,0,0,0,0,0,0,0,0,0,0,0,0,0,0,0,0,0,0,0,0,0,0,0,0,0,-0.0184,-0.0183,0,-0.0119,-0.0118,-0.0117,-0.0076,-0.0076,-0.0075,-0.0075,-0.0002,-0.0,0.0002,0,0,0,0,0,0,0,0,0,0,0,0,0,-0.0221,-0.0221,-0.0184,-0.0183,-0.0183,-0.0119,-0.0118,-0.0117,-0.0076,-0.0076,-0.0075,-0.0075,-0.0002,-0.0,0.0002,0,0,0,0,0,0,0,0,0,0,0,0,0,-0.0185,-0.0221,-0.0184,-0.0155,-0.0151,-0.0119,-0.0118,-0.0117,-0.0076,-0.0076,-0.0075,-0.0075,-0.0003,-0.0001,0.0002,0.0012,0,0,0.001,0.0011,0,0,0,0,0,0,0,0,-0.0188,-0.0184,-0.016,-0.0157,-0.0153,-0.0105,-0.0104,-0.0074,-0.0076,-0.0104,-0.0075,-0.0075,-0.0036,-0.0031,-0.0019,0.0015,0.0018,0.001,0.0012,0.0013,0.0014,0,0,0,0,0,0,0,-0.019,-0.0186,-0.0158,-0.0159,-0.0155,-0.0127,-0.0122,-0.0098,-0.0072,-0.0102,-0.0099,-0.0092,-0.0034,-0.0022,-0.0017,0.0019,0.001,0.0012,0.0014,0.0015,0.0079,0.0079,0,0,0,0,0,0,-0.0202,-0.0189,-0.016,-0.0156,-0.017,-0.0127,-0.0121,-0.0121,-0.0073,-0.0065,-0.0092,-0.009,-0.0026,-0.002,-0.0014,0.001,0.0013,0.0015,0.0017,0.0079,0.0079,0.008,0,0,0,0,0,0,-0.0203,-0.02,-0.0163,-0.0171,-0.0164,-0.0127,-0.0126,-0.012,-0.0106,-0.0066,-0.0058,-0.0086,-0.0026,-0.0018,0.0011,0.0013,0.0017,0.0019,0.0079,0.0079,0.0079,0.0052,0,0,0,0,0,0,-0.0205,-0.0201,-0.0205,-0.0172,-0.0164,-0.0148,-0.0127,-0.0119,-0.0103,-0.0099,-0.0058,-0.0051,-0.0025,0.0007,0.0014,0.0016,0.0021,0.0079,0.0079,0.0079,0.0053,0.0051,0.005,0,0,0,0,0,-0.0206,-0.0215,-0.0205,-0.0202,-0.017,-0.0149,-0.0142,-0.0114,-0.0103,-0.01,-0.0067,-0.0052,0.0014,0.001,0.0018,0.002,0.0079,0.0079,0.0079,0.0053,0.0051,0.005,0,0,0,0,0,0,-0.0232,-0.0211,-0.02,-0.0201,-0.0178,-0.0142,-0.0137,-0.0118,-0.0089,-0.0086,-0.0048,-0.0038,-0.0013,0.0007,0.0002,0.004,0.0047,0.0049,0.0025,0.0023,0.0022,0.0011,0.0023,0,0,0,0,0,-0.0241,-0.0243,-0.0213,-0.0215,-0.0206,-0.0173,-0.016,-0.0142,-0.0112,-0.0099,-0.0068,-0.0036,-0.0006,0.0011,0.0037,0.0059,0.0083,0.0065,0.0064,0.0062,0.0059,0.0098,0.01,0.008,0.008,0.008,0,0,-0.0251,-0.024,-0.024,-0.022,-0.0201,-0.0194,-0.0164,-0.0151,-0.0139,-0.0096,-0.0073,-0.0041,-0.0002,0.0024,0.0036,0.0042,0.0082,0.0063,0.0061,0.0059,0.0099,0.0101,0.0103,0.0081,0.0081,0.0081,0,0,-0.0276,-0.0264,-0.0273,-0.0258,-0.0234,-0.0212,-0.0211,-0.0176,-0.0155,-0.013,-0.0094,-0.006,-0.002,0.0015,0.0036,0.0042,0.0071,0.0047,0.0035,0.0073,0.0075,0.0077,0.0113,0.0118,0.0049,0.0049,0.0049,0,-0.029,-0.0298,-0.0272,-0.0274,-0.0265,-0.0224,-0.0229,-0.02,-0.0159,-0.014,-0.0129,-0.0055,-0.0023,0.002,0.0024,0.0039,0.0063,0.0038,0.0071,0.0074,0.0076,0.0112,0.0119,0.0047,0.0047,0.0048,0.0048,0,-0.0321,-0.0323,-0.0328,-0.0318,-0.0303,-0.0301,-0.0261,-0.0241,-0.0212,-0.0179,-0.0133,-0.0081,-0.0037,-0.0019,0.0005,0.0041,0.0052,0.0062,0.0074,0.0076,0.0115,0.0122,0.0045,0.0046,0.0046,0.0047,0,0,-0.036,-0.0354,-0.0354,-0.036,-0.0328,-0.0322,-0.0298,-0.0265,-0.0249,-0.0198,-0.0169,-0.0107,-0.0074,-0.0047,-0.0006,0.0032,0.0073,0.005,0.0053,0.0082,0.0157,0.0187,0.0198,0.0088,0.0089,0.009,0.0177,0,-0.0394,-0.0422,-0.0397,-0.0411,-0.0423,-0.0374,-0.0355,-0.0315,-0.0272,-0.0232,-0.0161,-0.0122,-0.0084,-0.0063,-0.0018,0.0051,0.009,0.0049,0.0153,0.0156,0.018,0.0207,0.0174,0.0251,0.0184,0.0185,0.0186,0,-0.0428,-0.0446,-0.0475,-0.0467,-0.0465,-0.0459,-0.0424,-0.0402,-0.0327,-0.029,-0.0228,-0.017,-0.0095,-0.0073,0.0049,0.002,0.0082,0.0135,0.014,0.0181,0.0199,0.0238,0.0266,0.0198,0.0197,0.0196,0.0196,0,-0.0483,-0.0493,-0.0524,-0.0522,-0.0506,-0.0501,-0.0485,-0.0424,-0.0405,-0.0327,-0.03,-0.02,-0.0148,-0.0058,0.0063,0.0053,0.0196,0.0196,0.0284,0.0286,0.0286,0.0288,0.0274,0.0274,0.0274,0.0273,0.0273,0,-0.053,-0.055,-0.0555,-0.0573,-0.0601,-0.056,-0.0563,-0.0526,-0.0467,-0.0443,-0.0339,-0.0291,-0.0143,-0.0038,0.0058,0.0203,0.0196,0.029,0.0315,0.0276,0.0276,0.0249,0.0244,0.0277,0.0276,0.0275,0.0275,0,-0.058,-0.0583,-0.0621,-0.0626,-0.0631,-0.0649,-0.0631,-0.0627,-0.0559,-0.0523,-0.05,-0.0353,-0.0204,-0.0051,0.0114,0.02,0.0328,0.0376,0.0324,0.0342,0.0391,0.0385,0.0479,0.0481,0.0483,0.0484,0.0485,0,-0.0609,-0.0637,-0.0676,-0.0707,-0.0712,-0.0732,-0.0742,-0.0686,-0.067,-0.0559,-0.054,-0.0382,-0.0254,0.0016,0.0199,0.0391,0.0383,0.0457,0.0435,0.0399,0.0415,0.0405,0.0397,0.0424,0.0424,0.0425,0.0425,0,-0.0665,-0.0677,-0.0712,-0.079,-0.0818,-0.0844,-0.0844,-0.0842,-0.0762,-0.0703,-0.0588,-0.0474,-0.0192,0.004,0.0296,0.0391,0.0425,0.0472,0.046,0.0376,0.0354,0.0366,0.0359,0.0429,0.0429,0.0428,0.0428,0.0428,-0.0699,-0.0744,-0.0799,-0.0867,-0.0908,-0.0939,-0.0953,-0.0922,-0.0884,-0.0765,-0.064,-0.0443,-0.0199,0.0174,0.0347,0.0497,0.0495,0.0518,0.0513,0.0509,0.0486,0.0469,0.0561,0.0561,0.0561,0.0562,0.0562,0,-0.0743,-0.0799,-0.0875,-0.0948,-0.1005,-0.1005,-0.101,-0.099,-0.094,-0.0781,-0.0638,-0.0374,-0.0092,0.0147,0.0399,0.0553,0.0522,0.0557,0.0492,0.0488,0.0484,0.0457,0.0525,0.0525,0.0526,0.0526,0,0,-0.0767,-0.0854,-0.0902,-0.1018,-0.1064,-0.1111,-0.1111,-0.105,-0.0937,-0.0778,-0.0612,-0.0371,-0.007,0.01,0.0297,0.0423,0.0405,0.0418,0.0432,0.0328,0.0322,0.0447,0.04,0,0,0,0,0]}],[{"header":{"parameterUnit":"m.s-1","parameterCategory":2,"la1":30.2991,"la2":30.254,"lo1":-89.0895,"lo2":-89.0444,"dy":0.0017,"dx":0.0017,"nx":28,"ny":28,"refTime":"2023-09-03T21:00:00:Z","depth":"4","parameterNumber":2,"parameterNumberName":"U-component_of_CURRENTS"},"data":[0,0,0,0,0,0,0,0,0,0,0,0,0,0,0,0,0,0,0,0,0,0,0,0,0,0,0,0,0,0,0,0,0,0,0,0,0,0,0,0,0,0,0,0,0,0,0,0,0,0,0,0,0,0,0,0,0,0,-0.1224,-0.1225,0,-0.1255,-0.1255,-0.1255,-0.1278,-0.1279,-0.1279,-0.1279,-0.1302,-0.1303,-0.1303,0,0,0,0,0,0,0,0,0,0,0,0,0,-0.117,-0.1171,-0.1224,-0.1225,-0.1225,-0.1255,-0.1255,-0.1255,-0.1278,-0.1279,-0.1279,-0.128,-0.1302,-0.1303,-0.1303,0,0,0,0,0,0,0,0,0,0,0,0,0,-0.1195,-0.1171,-0.1224,-0.1242,-0.1244,-0.1255,-0.1255,-0.1255,-0.1278,-0.1279,-0.1279,-0.128,-0.1302,-0.1303,-0.1303,-0.1294,0,0,-0.1304,-0.1304,0,0,0,0,0,0,0,0,-0.1193,-0.1197,-0.1238,-0.124,-0.1243,-0.1265,-0.1245,-0.1268,-0.1278,-0.1263,-0.1279,-0.128,-0.129,-0.1291,-0.1293,-0.1295,-0.1296,-0.1304,-0.1304,-0.1304,-0.1305,0,0,0,0,0,0,0,-0.1192,-0.1195,-0.1234,-0.1239,-0.1242,-0.1243,-0.1247,-0.1249,-0.1271,-0.1264,-0.1267,-0.1273,-0.1291,-0.1293,-0.1294,-0.1296,-0.1304,-0.1304,-0.1305,-0.1305,-0.1355,-0.1356,0,0,0,0,0,0,-0.1192,-0.1194,-0.1233,-0.1235,-0.1221,-0.1244,-0.1248,-0.1256,-0.1271,-0.1275,-0.1272,-0.1274,-0.1292,-0.1293,-0.1295,-0.1349,-0.1304,-0.1305,-0.1305,-0.1354,-0.1356,-0.1357,0,0,0,0,0,0,-0.1191,-0.1195,-0.1232,-0.1217,-0.1222,-0.1244,-0.1252,-0.1256,-0.1281,-0.1278,-0.1281,-0.1296,-0.1292,-0.1294,-0.132,-0.1347,-0.1305,-0.1305,-0.1353,-0.1355,-0.1356,-0.1415,0,0,0,0,0,0,-0.1189,-0.1195,-0.121,-0.1217,-0.1223,-0.1257,-0.1252,-0.1256,-0.1283,-0.1286,-0.1299,-0.1301,-0.1293,-0.132,-0.1321,-0.1347,-0.1306,-0.1352,-0.1354,-0.1356,-0.1412,-0.1419,-0.1424,0,0,0,0,0,-0.1187,-0.1202,-0.121,-0.1216,-0.124,-0.1259,-0.1262,-0.1278,-0.1284,-0.1301,-0.1312,-0.1301,-0.1334,-0.1321,-0.1322,-0.1349,-0.1351,-0.1353,-0.1356,-0.1409,-0.1417,-0.1424,0,0,0,0,0,0,-0.1188,-0.1206,-0.1216,-0.1237,-0.1256,-0.1264,-0.1282,-0.1291,-0.1312,-0.132,-0.1315,-0.1317,-0.135,-0.1341,-0.1327,-0.1369,-0.1341,-0.1343,-0.1381,-0.1389,-0.1395,-0.1392,-0.1306,0,0,0,0,0,-0.1195,-0.1212,-0.1229,-0.1249,-0.1261,-0.1276,-0.1289,-0.1302,-0.1316,-0.1327,-0.1336,-0.1346,-0.1356,-0.1367,-0.1373,-0.1395,-0.1382,-0.1413,-0.142,-0.1425,-0.1424,-0.143,-0.1436,-0.1365,-0.1365,-0.1365,0,0,-0.1201,-0.1214,-0.1225,-0.1252,-0.1267,-0.129,-0.1286,-0.1315,-0.134,-0.1325,-0.1366,-0.137,-0.1367,-0.1395,-0.1409,-0.1394,-0.1441,-0.1428,-0.1433,-0.1428,-0.1433,-0.144,-0.1446,-0.1367,-0.1366,-0.1366,0,0,-0.1214,-0.1235,-0.1253,-0.1273,-0.1304,-0.1314,-0.1329,-0.1353,-0.1373,-0.1407,-0.1404,-0.1424,-0.1443,-0.1446,-0.1449,-0.1492,-0.1474,-0.15,-0.1531,-0.1538,-0.1543,-0.1548,-0.1548,-0.1553,-0.1503,-0.1503,-0.1503,0,-0.1223,-0.1247,-0.1263,-0.1287,-0.1308,-0.1329,-0.1356,-0.1378,-0.141,-0.1429,-0.1431,-0.1466,-0.1465,-0.1493,-0.1509,-0.1507,-0.1505,-0.1503,-0.1546,-0.155,-0.1554,-0.1553,-0.1557,-0.1507,-0.1506,-0.1506,-0.1506,0,-0.1243,-0.1274,-0.1288,-0.1326,-0.1351,-0.138,-0.141,-0.1444,-0.147,-0.1486,-0.153,-0.1532,-0.1549,-0.1557,-0.1546,-0.1579,-0.1567,-0.1553,-0.1526,-0.1565,-0.1561,-0.1564,-0.1511,-0.151,-0.1509,-0.1508,0,0,-0.1228,-0.1291,-0.1298,-0.1327,-0.1376,-0.1397,-0.1447,-0.149,-0.1525,-0.1558,-0.1597,-0.1617,-0.1619,-0.162,-0.1616,-0.1623,-0.165,-0.1604,-0.1603,-0.1603,-0.1666,-0.1559,-0.1552,-0.1648,-0.1648,-0.1649,-0.1654,0,-0.1241,-0.129,-0.1321,-0.1377,-0.1405,-0.1447,-0.1491,-0.1535,-0.1571,-0.1615,-0.1629,-0.166,-0.1643,-0.1657,-0.1664,-0.1652,-0.1661,-0.165,-0.1628,-0.1627,-0.1526,-0.1552,-0.1651,-0.1656,-0.1657,-0.1657,-0.1658,0,-0.1242,-0.1279,-0.1333,-0.1407,-0.1425,-0.1464,-0.1536,-0.1577,-0.1637,-0.1667,-0.17,-0.1709,-0.1731,-0.1709,-0.1712,-0.1708,-0.1693,-0.1681,-0.1681,-0.1559,-0.1526,-0.1607,-0.1663,-0.1663,-0.1662,-0.1662,-0.1661,0,-0.1207,-0.1285,-0.133,-0.1355,-0.1439,-0.1479,-0.1525,-0.1592,-0.163,-0.1697,-0.1728,-0.1756,-0.177,-0.1762,-0.1734,-0.173,-0.1729,-0.1717,-0.1609,-0.1602,-0.1671,-0.1665,-0.1721,-0.1721,-0.1721,-0.1721,-0.172,0,-0.119,-0.1231,-0.1323,-0.1347,-0.1408,-0.1472,-0.1536,-0.1588,-0.1658,-0.1693,-0.1747,-0.1765,-0.1785,-0.1783,-0.1755,-0.1682,-0.1744,-0.1612,-0.1594,-0.1697,-0.1694,-0.1673,-0.1668,-0.1721,-0.1721,-0.1721,-0.1721,0,-0.1136,-0.1199,-0.1256,-0.1355,-0.1391,-0.1431,-0.1532,-0.1569,-0.165,-0.1696,-0.1718,-0.1778,-0.1768,-0.1772,-0.1756,-0.1692,-0.1645,-0.1608,-0.172,-0.1708,-0.1512,-0.151,-0.1486,-0.1482,-0.1479,-0.1476,-0.1474,0,-0.1109,-0.1133,-0.1243,-0.1276,-0.1324,-0.1398,-0.1443,-0.1547,-0.1578,-0.168,-0.1684,-0.1723,-0.1742,-0.1638,-0.1652,-0.1597,-0.1574,-0.1547,-0.1524,-0.1503,-0.1488,-0.1491,-0.1492,-0.1469,-0.1468,-0.1467,-0.1466,0,-0.1049,-0.1096,-0.1137,-0.1207,-0.1265,-0.1324,-0.1395,-0.1414,-0.1518,-0.1609,-0.1607,-0.1598,-0.1589,-0.1562,-0.1531,-0.149,-0.1561,-0.1513,-0.1519,-0.1497,-0.1482,-0.1471,-0.1477,-0.1455,-0.1457,-0.1458,-0.1458,0,-0.0996,-0.1007,-0.1066,-0.1114,-0.1184,-0.1218,-0.1278,-0.1316,-0.1366,-0.1482,-0.1474,-0.1517,-0.1576,-0.1506,-0.1474,-0.1427,-0.14,-0.135,-0.1365,-0.1377,-0.1334,-0.1298,-0.1196,0,0,0,0,0,-0.0935,-0.0934,-0.097,-0.1015,-0.1079,-0.112,-0.1225,-0.1287,-0.1394,-0.1356,-0.1413,-0.1398,-0.1363,-0.1385,-0.1308,-0.1409,-0.1398,-0.1314,-0.1348,-0.1394,-0.1406,-0.1364,0,0,0,0,0,0,-0.0894,-0.0917,-0.0929,-0.0916,-0.0926,-0.0987,-0.1051,-0.1133,-0.1124,-0.1235,-0.1221,-0.13,-0.1281,-0.1371,-0.127,-0.1274,-0.1265,-0.1344,-0.134,-0.1386,-0.1398,-0.1408,-0.1369,0,0,0,0,0]},{"header":{"parameterUnit":"m.s-1","parameterCategory":2,"la1":30.2991,"la2":30.254,"lo1":-89.0895,"lo2":-89.0444,"dy":0.0017,"dx":0.0017,"nx":28,"ny":28,"refTime":"2023-09-03T21:00:00:Z","depth":"4","parameterNumber":3,"parameterNumberName":"V-component_of_CURRENTS"},"data":[0,0,0,0,0,0,0,0,0,0,0,0,0,0,0,0,0,0,0,0,0,0,0,0,0,0,0,0,0,0,0,0,0,0,0,0,0,0,0,0,0,0,0,0,0,0,0,0,0,0,0,0,0,0,0,0,0,0,-0.0175,-0.0174,0,-0.0133,-0.0132,-0.0132,-0.0105,-0.0104,-0.0104,-0.0104,-0.0048,-0.0046,-0.0045,0,0,0,0,0,0,0,0,0,0,0,0,0,-0.0191,-0.0191,-0.0175,-0.0174,-0.0174,-0.0133,-0.0132,-0.0132,-0.0105,-0.0104,-0.0104,-0.0104,-0.0048,-0.0047,-0.0045,0,0,0,0,0,0,0,0,0,0,0,0,0,-0.017,-0.0191,-0.0175,-0.0156,-0.0154,-0.0133,-0.0132,-0.0131,-0.0105,-0.0104,-0.0104,-0.0104,-0.0049,-0.0047,-0.0045,-0.0036,0,0,-0.0038,-0.0037,0,0,0,0,0,0,0,0,-0.0171,-0.0169,-0.0159,-0.0157,-0.0155,-0.0124,-0.0117,-0.0099,-0.0105,-0.0123,-0.0104,-0.0104,-0.0073,-0.0068,-0.006,-0.0033,-0.003,-0.0038,-0.0037,-0.0036,-0.0035,0,0,0,0,0,0,0,-0.0173,-0.0171,-0.0158,-0.0159,-0.0156,-0.0136,-0.0133,-0.0114,-0.0098,-0.0121,-0.0119,-0.0115,-0.0071,-0.0062,-0.0059,-0.003,-0.0038,-0.0036,-0.0035,-0.0034,0.0017,0.0017,0,0,0,0,0,0,-0.0181,-0.0172,-0.0159,-0.0156,-0.0163,-0.0136,-0.0132,-0.0134,-0.0099,-0.0094,-0.0116,-0.0114,-0.0066,-0.0061,-0.0057,-0.0038,-0.0036,-0.0034,-0.0033,0.0017,0.0017,0.0017,0,0,0,0,0,0,-0.0182,-0.0181,-0.0161,-0.0163,-0.016,-0.0136,-0.0137,-0.0133,-0.0125,-0.0095,-0.0089,-0.0113,-0.0066,-0.006,-0.0038,-0.0036,-0.0033,-0.0031,0.0017,0.0017,0.0017,-0.0004,0,0,0,0,0,0,-0.0183,-0.0181,-0.0186,-0.0164,-0.016,-0.0153,-0.0138,-0.0132,-0.0124,-0.0121,-0.0091,-0.0085,-0.0065,-0.0041,-0.0036,-0.0033,-0.003,0.0017,0.0017,0.0017,-0.0004,-0.0005,-0.0006,0,0,0,0,0,-0.0184,-0.0192,-0.0187,-0.0185,-0.0167,-0.0154,-0.0149,-0.0131,-0.0124,-0.0123,-0.0098,-0.0086,-0.0036,-0.0039,-0.0033,-0.003,0.0017,0.0017,0.0017,-0.0003,-0.0005,-0.0006,0,0,0,0,0,0,-0.0201,-0.019,-0.0183,-0.0188,-0.0174,-0.0149,-0.0148,-0.0135,-0.0115,-0.0113,-0.0083,-0.0076,-0.0057,-0.0041,-0.0045,-0.0014,-0.0008,-0.0007,-0.0026,-0.0027,-0.0028,-0.0036,-0.0028,0,0,0,0,0,-0.0208,-0.0213,-0.0194,-0.0199,-0.0194,-0.0172,-0.0164,-0.0152,-0.0132,-0.0123,-0.01,-0.0075,-0.0051,-0.0037,-0.0017,0.0001,0.0022,0.0006,0.0005,0.0004,0.0002,0.0038,0.0041,0.0018,0.0018,0.0018,0,0,-0.0217,-0.0211,-0.0213,-0.0203,-0.0191,-0.0188,-0.0167,-0.016,-0.0153,-0.012,-0.0104,-0.008,-0.0048,-0.0028,-0.0018,-0.0013,0.0022,0.0005,0.0003,0.0002,0.0039,0.0041,0.0043,0.0018,0.0018,0.0018,0,0,-0.0236,-0.0231,-0.0241,-0.0231,-0.0218,-0.0203,-0.0203,-0.0181,-0.0167,-0.0149,-0.0121,-0.0093,-0.0063,-0.0034,-0.0017,-0.0011,0.0013,-0.0008,-0.0016,0.0019,0.0022,0.0024,0.0054,0.0059,-0.0006,-0.0006,-0.0006,0,-0.0247,-0.0257,-0.024,-0.0245,-0.0241,-0.0213,-0.0219,-0.0199,-0.0171,-0.0157,-0.015,-0.0091,-0.0065,-0.0029,-0.0026,-0.0013,0.0007,-0.0014,0.0018,0.0021,0.0023,0.0054,0.006,-0.0007,-0.0007,-0.0007,-0.0006,0,-0.0271,-0.0278,-0.0283,-0.028,-0.0271,-0.0273,-0.0246,-0.0233,-0.0214,-0.0189,-0.0153,-0.0111,-0.0076,-0.0061,-0.0041,-0.0008,0.0001,0.001,0.002,0.0024,0.0057,0.0063,-0.0008,-0.0008,-0.0008,-0.0007,0,0,-0.0299,-0.0302,-0.0303,-0.0311,-0.0292,-0.0291,-0.0275,-0.0253,-0.0243,-0.0204,-0.0182,-0.0131,-0.0104,-0.0082,-0.0048,-0.0013,0.0026,0.0003,0.0006,0.0031,0.0102,0.0089,0.0095,0.004,0.0041,0.0042,0.0118,0,-0.0325,-0.0351,-0.0336,-0.0353,-0.0365,-0.0333,-0.0322,-0.0294,-0.0263,-0.0234,-0.0174,-0.0144,-0.0112,-0.0096,-0.0053,0.0005,0.0042,0.0005,0.0096,0.0099,0.0085,0.0102,0.0045,0.0123,0.0124,0.0125,0.0126,0,-0.035,-0.0368,-0.0396,-0.0399,-0.0399,-0.04,-0.0381,-0.0367,-0.031,-0.0282,-0.0231,-0.0185,-0.012,-0.01,0.0008,-0.0018,0.0037,0.0084,0.0088,0.0087,0.0098,0.0119,0.0138,0.0137,0.0136,0.0136,0.0135,0,-0.0386,-0.0403,-0.0433,-0.0435,-0.0432,-0.0435,-0.0429,-0.0386,-0.0374,-0.0314,-0.0294,-0.0208,-0.0165,-0.0084,0.0019,0.0012,0.0136,0.014,0.0183,0.0183,0.0181,0.0178,0.0212,0.0212,0.0211,0.0211,0.0211,0,-0.0415,-0.0437,-0.0457,-0.0474,-0.0506,-0.0482,-0.0493,-0.0468,-0.0427,-0.0409,-0.0327,-0.0287,-0.016,-0.0071,0.0015,0.0122,0.0137,0.0185,0.0203,0.017,0.0165,0.0186,0.0182,0.0214,0.0213,0.0213,0.0212,0,-0.0442,-0.0455,-0.0494,-0.0515,-0.0526,-0.0548,-0.0551,-0.0552,-0.0505,-0.0477,-0.046,-0.0342,-0.022,-0.0091,0.0054,0.0112,0.0216,0.025,0.0207,0.0222,0.0238,0.0232,0.0299,0.0299,0.0299,0.0299,0.0299,0,-0.0456,-0.0482,-0.0536,-0.057,-0.0584,-0.0614,-0.0632,-0.0599,-0.0589,-0.0508,-0.049,-0.0369,-0.0279,-0.0074,0.0053,0.0221,0.0239,0.0284,0.0259,0.0237,0.0248,0.0242,0.0236,0.03,0.03,0.03,0.03,0,-0.0485,-0.0508,-0.0543,-0.0622,-0.066,-0.0693,-0.0707,-0.0702,-0.0648,-0.0613,-0.0504,-0.0384,-0.0241,-0.0077,0.006,0.0175,0.0249,0.0286,0.0286,0.0263,0.0239,0.0249,0.0242,0.03,0.03,0.03,0.03,0,-0.0503,-0.0539,-0.0596,-0.0659,-0.0718,-0.0748,-0.075,-0.0718,-0.0694,-0.059,-0.0557,-0.0389,-0.0284,-0.01,0.0023,0.0141,0.016,0.0176,0.0183,0.0183,0.0124,0.0075,0.0105,0,0,0,0,0,-0.0515,-0.0562,-0.063,-0.0694,-0.0753,-0.0782,-0.0789,-0.0772,-0.0719,-0.065,-0.0597,-0.0458,-0.025,-0.0151,-0.0035,0.0007,0.0164,0.0142,0.0182,0.0304,0.0303,0.0251,0,0,0,0,0,0,-0.0525,-0.059,-0.0631,-0.0711,-0.0759,-0.0809,-0.0813,-0.0778,-0.0721,-0.0652,-0.0533,-0.0456,-0.0247,-0.0316,-0.0041,-0.0004,0.003,0.0249,0.025,0.0304,0.0304,0.0303,0.025,0,0,0,0,0]}]]